Omaha, NE

3:59 AM CDT on September 30, 2016 (GMT -0500)
Eppley Airfield

Weather History for KOMA - April, 2014

Change the Weather History Date:

Monday, April 14, 2014

  Actual Average Record
Temperature  
Mean Temperature 36 °F 51 °F  
Max Temperature 43 °F 63 °F 90 °F (2003)
Min Temperature 28 °F 39 °F 22 °F (1950)
Degree Days  
Heating Degree Days 29 14  
Month to date heating degree days 240 232  
Since 1 July heating degree days 6224 5821  
Cooling Degree Days 0 0  
Month to date cooling degree days 6 0  
Year to date cooling degree days 6 1  
Moisture  
Dew Point 21 °F    
Average Humidity 57    
Maximum Humidity 78    
Minimum Humidity 36    
Precipitation  
Precipitation 0.00 in 0.10 in 2.73 in (1999)
Month to date precipitation 1.56 1.22  
Year to date precipitation 2.63 4.78  
Snow  
Snow 0.00 in 0.10 in - ()
Month to date snowfall 0.6 0.7  
Since 1 July snowfall 17.8 26.1  
Snow Depth T in    
Sea Level Pressure  
Sea Level Pressure 30.13 in    
Wind  
Wind Speed 18 mph (NNW)    
Max Wind Speed 39 mph    
Max Gust Speed 47 mph    
Visibility 10 miles    
Events Snow    
T = Trace of Precipitation, MM = Missing Value Source: NWS Daily Summary

Daily Weather History Graph

Daily Weather History Graph

Search for Another Location

Airport or City:

Trip Planner

Search our weather history database for the weather conditions in past years. The results will help you decide how hot, cold, wet, or windy it might be!

Date:

Astronomy

Apr. 14, 2014 Rise Set
Actual Time 6:45 AM CDT 8:02 PM CDT
Civil Twilight 6:17 AM CDT 8:31 PM CDT
Nautical Twilight 5:42 AM CDT 9:05 PM CDT
Astronomical Twilight 5:06 AM CDT 9:42 PM CDT
Moon 7:42 PM CDT (4/14) 6:18 AM CDT (4/14)
Length of Visible Light 14h 14m
Length of Day
13h 17m
Full, 100% of the Moon is Illuminated
Apr 14
Full
Apr 15
Full
Apr 22
Last Quarter
Apr 29
New
May 6
First Quarter

Hourly Weather History & Observations

Time (CDT) Temp. Windchill Dew Point Humidity Pressure Visibility Wind Dir Wind Speed Gust Speed Precip Events Conditions
12:18 AM 32.0 °F 17.0 °F 26.1 °F 79% 29.94 in 4.0 mi NNW 33.4 mph 41.4 mph 0.01 in Snow Light Snow
12:38 AM 32.0 °F 17.9 °F 25.0 °F 75% 29.95 in 9.0 mi North 28.8 mph 43.7 mph 0.01 in   Scattered Clouds
12:52 AM 32.0 °F 17.9 °F 25.0 °F 75% 29.97 in 10.0 mi North 28.8 mph 40.3 mph 0.01 in   Mostly Cloudy
1:52 AM 30.9 °F 16.2 °F 24.1 °F 76% 29.98 in 10.0 mi North 29.9 mph 41.4 mph N/A   Mostly Cloudy
2:52 AM 30.9 °F 16.4 °F 21.9 °F 69% 30.03 in 10.0 mi NNW 28.8 mph 36.8 mph N/A   Mostly Cloudy
3:52 AM 30.2 °F 14.1 °F 19.4 °F 64% 30.00 in 10.0 mi North 35.7 mph 46.0 mph N/A   Overcast
4:52 AM 28.9 °F 13.7 °F 19.0 °F 67% 30.05 in 10.0 mi NNW 28.8 mph 36.8 mph N/A   Overcast
5:52 AM 28.0 °F 11.8 °F 18.0 °F 66% 30.08 in 10.0 mi NNW 32.2 mph 41.4 mph N/A   Overcast
6:52 AM 28.0 °F 14.3 °F 18.0 °F 66% 30.13 in 10.0 mi NNW 21.9 mph 34.5 mph N/A   Mostly Cloudy
7:52 AM 28.0 °F 13.3 °F 17.1 °F 63% 30.16 in 10.0 mi NNW 25.3 mph 33.4 mph N/A   Overcast
8:52 AM 28.9 °F 15.8 °F 18.0 °F 64% 30.19 in 10.0 mi NNW 20.7 mph 27.6 mph N/A   Overcast
9:52 AM 28.9 °F 15.8 °F 19.0 °F 67% 30.20 in 10.0 mi North 20.7 mph 27.6 mph N/A   Overcast
10:52 AM 30.0 °F 17.2 °F 18.0 °F 61% 30.22 in 10.0 mi NNW 20.7 mph - N/A   Overcast
11:52 AM 32.0 °F 21.2 °F 18.0 °F 56% 30.23 in 10.0 mi NNW 16.1 mph - N/A   Overcast
12:52 PM 35.6 °F 25.9 °F 21.2 °F 56% 30.20 in 10.0 mi NNW 16.1 mph - N/A   Mostly Cloudy
1:52 PM 37.0 °F 27.4 °F 21.0 °F 52% 30.21 in 10.0 mi NW 17.3 mph - N/A   Mostly Cloudy
2:52 PM 39.9 °F 31.1 °F 21.9 °F 49% 30.20 in 10.0 mi NW 17.3 mph 23.0 mph N/A   Scattered Clouds
3:52 PM 41.0 °F 34.3 °F 19.4 °F 42% 30.16 in 10.0 mi NNW 11.5 mph - N/A   Scattered Clouds
4:52 PM 41.0 °F 32.5 °F 21.0 °F 45% 30.17 in 10.0 mi NW 17.3 mph 21.9 mph N/A   Scattered Clouds
5:52 PM 42.1 °F 36.1 °F 18.0 °F 38% 30.17 in 10.0 mi NW 10.4 mph - N/A   Scattered Clouds
6:52 PM 41.0 °F 33.1 °F 19.0 °F 41% 30.17 in 10.0 mi NNW 15.0 mph - N/A   Scattered Clouds
7:52 PM 39.0 °F 33.4 °F 21.0 °F 49% 30.17 in 10.0 mi NNW 8.1 mph - N/A   Mostly Cloudy
8:52 PM 34.0 °F 27.2 °F 21.9 °F 61% 30.18 in 10.0 mi NNW 8.1 mph - N/A   Mostly Cloudy
9:52 PM 33.1 °F 26.9 °F 21.0 °F 61% 30.20 in 10.0 mi NW 6.9 mph - N/A   Mostly Cloudy
10:52 PM 33.1 °F 28.7 °F 23.0 °F 66% 30.21 in 10.0 mi NW 4.6 mph - N/A   Partly Cloudy
11:52 PM 30.9 °F 26.2 °F 23.0 °F 72% 30.21 in 10.0 mi North 4.6 mph - N/A   Scattered Clouds